Location: Peterborough
(44.3091°N, 78.3197°W)
Time: 16:10:32
(UTC-04:00)

Transit 4A - Pass Details

Date: 29 March 2023
Orbit: 864 x 980 km, 66.8° (Epoch: 04 June)

Event Time Altitude Azimuth Distance (km) Brightness Sun altitude
Rises 09:27:21 0° 283° (WNW) 3,466 10.3 25.0°
Reaches altitude 10° 09:31:42 10° 313° (NW) 2,552 9.8 25.8°
Maximum altitude 09:33:55 12° 336° (NNW) 2,418 9.8 26.1°
Drops below altitude 10° 09:36:10 10° 358° (N) 2,581 10.1 26.5°
Sets 09:40:38 0° 28° (NNE) 3,556 11.0 27.2°
